World > North America > United States > Colorado > Middle Park Senior High School

Hourly Middle Park Senior High School, CO Regional Weather

Feedback E-mail the Weather

Quick WX

Middle Park Senior High School, CO Weather Maps

°F °C°F °C
Middle Park Senior High School Weather Map
UTC Time: 8/8/2022, 09:30
Your Time:

Middle Park Senior High School, CO Regional Weather

Expires:202208081000;;667531
ASUS45 KBOU 080910
RWRCO 

WEATHER ROUNDUP FOR COLORADO
NATIONAL WEATHER SERVICE PUEBLO CO
300 AM MDT MON AUG 08 2022

NOTE: "FAIR" INDICATES FEW OR NO CLOUDS BELOW 12000 FEET WITH NO
SIGNIFICANT WEATHER AND/OR OBSTRUCTIONS TO VISIBILITY.


COZ009-010-012-014-032>034-037-058>063-081000-
...CENTRAL COLORADO...
  
CITY           SKY/WX    TMP DP  RH WIND       PRES   REMARKS
ASPEN          CLEAR     57  44  62 S5        30.39F                  
BUENA VISTA      N/A     50  48  93 CALM      30.49F                  
COPPER MTN     CLEAR     52  43  71 S13       30.75F                  
BERTHOUD PASS  FAIR      43  37  81 W13       30.77S                  
COTTONWOOD PAS CLEAR     52  46  82 W9        30.60F                  
GUNNISON       CLEAR     54  45  71 N8        30.44S                  
KREMMLING      CLEAR     54  46  76 CALM      30.41S                  
LEADVILLE      CLOUDY    50  49  96 CALM      30.61F                  
MONARCH PASS   PTCLDY    43  43 100 E12       30.84S                  
SALIDA         PTCLDY    55  51  84 W6        30.54S                  
SUNLIGHT       CLEAR     52  37  58 E3        30.66S                  
WILKERSON PASS CLOUDY    46  39  76 S3        30.72F                  
$$


SKY/WX - Weather  TMP - Temperature  DP - Dew Point  RH - Humidity
WIND - Wind Direction/Speed PRES - Barometric Pressure VSB - Visibility
WCI - Wind Chill Index E13G22 Wind - East Wind 13 mph/Gusts of 22 mph

Trending Headlines

Middle Park Senior High School Radar Loop



Middle Park Senior High School Quick Facts


National Two Day Weather Forecast


E-mail the Middle Park Senior High School Weather Forecast

Voice your opinion or tell us about page issues...